Simultaneous Nadir Overpasses (SNOs) Predictions

Prediction of SNOs between AQUA and METOP-B Satellite Orbit:

Table of predicted SNOs for the next 14.0 days since TLE Epoch: 9/15/2017
Index Date (AQUA) Time (AQUA) Lat,Lon (AQUA) SZA (AQUA ) Date (METOP-B) Time (METOP-B) Lat,Lon (METOP-B) SZA (METOP-B ) Distance(km) Time Diff (sec)
1 09/16/2017 19:25:16 -73.53, 63.46 108.86 09/16/2017 19:24:05 -73.44, 62.31 108.92 37.84 71
2 09/16/2017 20:14:49 73.79,-129.47 71.43 09/16/2017 20:14:37 73.80,-129.51 71.45 1.62 12
3 09/16/2017 21:04:16 -73.89, 37.96 108.46 09/16/2017 21:05:18 -73.87, 37.97 108.49 2.93 62
4 09/19/2017 14:59:37 -73.75, 129.42 107.54 09/19/2017 14:58:23 -73.70, 129.33 107.58 6.24 74
5 09/19/2017 15:49:06 73.81, -63.07 72.53 09/19/2017 15:49:00 73.82, -63.06 72.54 1.35 6
6 09/19/2017 16:38:33 -73.90, 104.37 107.36 09/19/2017 16:39:41 -73.88, 104.41 107.39 2.69 68
7 09/22/2017 10:33:54 -73.77,-164.19 106.44 09/22/2017 10:32:45 -73.77,-164.12 106.44 2.30 69
8 09/22/2017 11:23:23 73.83, 3.32 73.64 09/22/2017 11:23:23 73.83, 3.37 73.64 1.67 0
9 09/22/2017 12:12:50 -73.92, 170.76 106.25 09/22/2017 12:14:03 -73.94, 170.97 106.24 7.02 73
10 09/25/2017 06:08:09 -73.75, -97.70 105.37 09/25/2017 06:07:07 -73.78, -97.69 105.34 3.40 62
11 09/25/2017 06:57:38 73.81, 69.80 74.71 09/25/2017 06:57:45 73.84, 69.80 74.74 3.77 7
12 09/25/2017 07:47:10 -74.15,-123.34 104.92 09/25/2017 07:48:20 -74.20,-121.99 104.90 41.32 70
13 09/28/2017 01:42:26 -73.78, -31.35 104.24 09/28/2017 01:41:30 -73.78, -31.26 104.24 2.77 56
14 09/28/2017 02:31:55 73.85, 136.15 75.84 09/28/2017 02:32:08 73.85, 136.23 75.84 2.67 13




NCC Satellite Simultaneous Nadir Overpasses (SNOs) Prediction Service
